Flag for U.S.A. Weather past 2 weeks in Cape Coral, Florida, U.S.A.

Now
76 °F

Passing clouds.


Feels Like: 75 °F
Forecast: 71 / 78 °F
Wind: 3 mph from Southwest

Location: Page Field

Current Time: Sep 20, 2014 at 12:49:06 PM

Latest Report: Sep 20, 2014 at 8:53 AM


Visibility: 10 mi

Pressure: 29.92 "Hg

Humidity: 97%

Dew point: 75 °F

Location of Cape CoralLocation

Historic Weather in Cape Coral — Graph

°F

Cape Coral temperature yesterday

Maximum temperature yesterday: 78 °F (at 9:53 AM)
Minimum temperature yesterday: 73 °F (at 10:53 PM)
Average temperature yesterday: 76 °F

Past Weeks' High & Low Weather Summary

 TemperatureHumidityPressure
High94 °F (Sep 15, 3:53 PM)100% (Sep 7, 12:53 AM)30.16 "Hg (Sep 7, 12:53 AM)
Low72 °F (Sep 15, 6:53 AM)39% (Sep 13, 3:53 PM)29.86 "Hg (Sep 18, 5:53 PM)
Average79 °F84%30.00 "Hg
* Reported Sep 5 8:53 AM — Sep 20 8:53 AM, Cape Coral, Weather by CustomWeather, © 2014

Note: Actual official high and low records may vary slightly from our data, if they occured in-between our weather recording intervals... More about our weather records

Advertising

Cape Coral weather history for previous 24 hours

 ConditionsComfort  
Time TempWeatherWind HumidityBarometerVisibility
8:53 AM
Sep 20
76 °FPassing clouds.3 mph97%29.92 "Hg10 mi
7:53 AM75 °FPassing clouds.No wind96%29.91 "Hg10 mi
6:53 AM75 °FLight rain. Passing clouds.3 mph96%29.90 "Hg7 mi
5:53 AM74 °FOvercast.No wind100%29.89 "Hg10 mi
4:53 AM74 °FLight rain. Passing clouds.3 mph97%29.89 "Hg10 mi
3:53 AM75 °FLight rain. Fog.No wind96%29.89 "Hg5 mi
2:53 AM75 °FPassing clouds.5 mph96%29.90 "Hg10 mi
1:53 AM74 °FPassing clouds.6 mph100%29.92 "Hg10 mi
12:53 AM74 °FClear.3 mph100%29.95 "Hg10 mi
11:53 PM
Sep 19
74 °FPassing clouds.No wind97%29.96 "Hg10 mi
10:53 PM73 °FPassing clouds.5 mph97%29.96 "Hg10 mi
9:53 PM74 °FLight rain. Passing clouds.13 mph91%29.96 "Hg10 mi
8:53 PM77 °FPassing clouds.No wind96%29.93 "Hg10 mi
7:53 PM77 °FLight rain. Passing clouds.No wind96%29.92 "Hg10 mi
6:53 PM78 °FScattered clouds.No wind90%29.91 "Hg10 mi
5:53 PM78 °FPassing clouds.No wind87%29.90 "Hg10 mi
5:03 PM78 °FScattered clouds.5 mph87%29.90 "Hg10 mi
4:53 PM77 °FPartly sunny.5 mph94%29.90 "Hg10 mi
3:53 PM77 °FPassing clouds.3 mph88%29.90 "Hg10 mi
3:00 PM77 °FLight rain. Broken clouds.No wind94%29.91 "Hg10 mi
1:53 PM77 °FLight rain. Fog.No wind96%29.94 "Hg5 mi
12:53 PM77 °FLight rain. Low clouds.5 mph96%29.96 "Hg7 mi
12:00 PM77 °FLight rain. Fog.No wind96%29.96 "Hg4 mi
Weather by CustomWeather, © 2014

See weather overviewHow to use our weather pages